Location: Carrières
(48.9495°N, 2.0407°E)
Time: 06:33:04
(UTC+00:00)

Tiros 1 despin weight - Pass Details

Date: 24 April 2024
Orbit: 578 x 620 km, 48.2° (Epoch: 27 May)

Event Time Altitude Azimuth Distance (km) Brightness Sun altitude
Rises 15:32:44 0° 281° (WNW) 2,853 ? 32.1°
Reaches altitude 10° 15:35:03 10° 277° (W) 1,955 ? 31.8°
Maximum altitude 15:39:25 52° 201° (SSW) 762 ? 31.1°
Drops below altitude 10° 15:43:50 10° 125° (SE) 1,973 ? 30.4°
Sets 15:46:11 0° 121° (ESE) 2,881 ? 30.0°
